Regional Weather Roundup
Issued by NWS Upton, NY

Current Version | Previous Version | Text Only | Print | Product List | Glossary On
Versions: 1 2 3 4 5 6 7 8 9 10 11 12 13 14 15 16 17 18 19 20 21 22 23 24 25 26 27 28 29 30 31 32 33 34 35 36 37 38 39 40 41 42 43 44 45 46 47 48 49 50
000
ASUS41 KOKX 090708
RWROKX

REGIONAL WEATHER ROUNDUP
NATIONAL WEATHER SERVICE NEW YORK NY
200 AM EST FRI DEC 09 2016

NOTE: "FAIR" INDICATES FEW OR NO CLOUDS BELOW 12,000 FEET WITH NO
SIGNIFICANT WEATHER AND/OR OBSTRUCTIONS TO VISIBILITY.

NYZ071-072-176-178-NJZ106-104-090800-
NEW YORK CITY METRO AREA

CITY           SKY/WX    TMP DP  RH WIND       PRES   REMARKS
Central Park     N/A     34  16  47 MISG        N/A
Wall St Helipt SUNNY     35  22  58 W10G22    30.03R WCI  27
Bronx Bot Gard NOT AVBL
LaGuardia APRT PTCLDY    35  16  45 W18G30    30.01R WCI  24
Kennedy INTL   PTCLDY    34  16  47 W20       30.03R WCI  23
Breezy Point     N/A     32 N/A N/A W16G28      N/A  WCI  21
Newark/Liberty PTCLDY    32  15  49 W15       30.03R WCI  22
Teterboro      CLEAR     32  15  49 W7        30.01R WCI  26
$$

NYZ177-179-078>081-090800-
LONG ISLAND NEW YORK

CITY           SKY/WX    TMP DP  RH WIND       PRES   REMARKS
Jones Beach      N/A     34 N/A N/A W16G23      N/A  WCI  23
Matinecock PT  NOT AVBL
Farmingdale    PTCLDY    33  18  53 W12       30.00R WCI  24
MacArthur/ISP  MOCLDY    32  18  56 W8        29.97R WCI  25
Shirley        MOCLDY    33  18  53 W12       29.98R WCI  24
Westhampton    CLOUDY    33  18  53 W9        29.97R WCI  25
Southampton    NOT AVBL
Bridgehampton  NOT AVBL
East Hampton     N/A     35  19  53 W9G21     29.94R WCI  28
Montauk          N/A     38  23  55 W14G29    29.93R WCI  30
$$

NYZ052-065-067-090800-
HUDSON VALLEY

CITY           SKY/WX    TMP DP  RH WIND       PRES   REMARKS
White Plains   CLEAR     33  14  45 W17G25    29.96R WCI  22
Newburgh       MOCLDY    30  21  69 W9G21     29.97R WCI  22
Montgomery     MOCLDY    32  17  54 W10G20    29.96R WCI  24
Poughkeepsie   CLOUDY    32  19  58 SW9       29.96R WCI  24
Albany         FLURRIES  31  18  58 W13       29.91R WCI  21
$$

NJZ001-105-106-008-010-013-015-019>022-104-090800-
NEW JERSEY

CITY           SKY/WX    TMP DP  RH WIND       PRES   REMARKS
Newark/Liberty PTCLDY    32  15  49 W15       30.03R WCI  22
Teterboro      CLEAR     32  15  49 W7        30.01R WCI  26
Caldwell       PTCLDY    32  15  49 W9        30.02R WCI  24
Somerville     PTCLDY    31  16  54 W9G16     30.03R WCI  23
Linden           N/A     32  15  49 W14       30.04R WCI  22
Sussex         CLEAR     31  15  52 VRB6      29.99R WCI  25
Andover          N/A     29  15  56 CALM      30.01R
Trenton        PTCLDY    30  15  53 W9        30.07R WCI  22
Millville      CLEAR     30  17  58 NW14      30.13R WCI  19
Atlantic City  CLEAR     31  14  49 W12G20    30.11R WCI  22
Wrightstown    CLEAR     30  15  53 W13G20    30.05S WCI  20
Toms River     PTCLDY    30  17  58 W10       30.08R WCI  21
Belmar         CLEAR     29  17  61 W12G18    30.06R WCI  19
$$

PAZ047>061-062-071-090800-
EASTERN PENNSYLVANIA

CITY           SKY/WX    TMP DP  RH WIND       PRES   REMARKS
Philadelphia   PTCLDY    31  15  52 W15       30.13R WCI  20
Allentown      MOCLDY    31  15  52 W12       30.07R WCI  22
Scranton       CLOUDY    30  17  58 W10       30.02R WCI  21
$$

CTZ002-004>006-009-010-012-RIZ004-006-007-MAZ004-011-015-090800-
SOUTHERN NEW ENGLAND
 IN CT

CITY           SKY/WX    TMP DP  RH WIND       PRES   REMARKS
Bradley INTL   CLEAR     28  18  66 SW5       29.91R WCI  23
Hartford       PTCLDY    31  21  66 SW6       29.93R WCI  25
Danbury        CLEAR     32  17  54 W15G24    29.95R WCI  22
Wtrbury/Oxford CLEAR     30  16  55 W7        29.92R WCI  23
Bridgeport     NOT AVBL
Meriden        PTCLDY    33  19  56 W6        29.94R WCI  28
New Haven      CLEAR     34  21  59 W9        29.95R WCI  27
Chester          N/A     32  19  59 W6G13     29.92R WCI  26
Groton         CLEAR     36  21  54 W9        29.92R WCI  29
Wilimantic     PTCLDY    32  19  58 SW5       29.90S WCI  27

 IN RI

CITY           SKY/WX    TMP DP  RH WIND       PRES   REMARKS
Providence     PTCLDY    32  17  54 W7        29.89R WCI  26
Block Island   CLEAR     36  21  54 W16G25    29.91R WCI  26
Westerly       CLEAR     33  19  56 W8        29.92R WCI  26
 IN MA

CITY           SKY/WX    TMP DP  RH WIND       PRES   REMARKS
Boston         CLEAR     33  17  51 W12       29.85R WCI  24
Worcester      CLEAR     28  14  55 W20G25    29.81R WCI  15
Westfield      CLEAR     32  15  49 W16G23    29.89R WCI  21
Provincetown   CLEAR     35  21  56 W20G30    29.84R WCI  24
Nantucket      CLEAR     35  19  52 W20G25    29.87R WCI  24
$$

ANZ330-335-338-340-345-350-353-355-090800-
COASTAL MARINE OBSERVATIONS


STATION/POSITION TIME  SKY/WX   TEMP    WIND        PRES    VSBY  WAVE
                                AIR SEA DIR/SP/G                  HT/PER
                 (UTC)          (F)     (DEG/KT/KT) (MB)    (MI)  (FT/S)
NY HARB ENTRANCE 0550            36 52  270/ 25/ 33 1015.4          5/ 5
20 S FIRE ISLAND 0650            38 53  290/ 25/ 31 1015.0          7/ 7
GREAT SOUTH BAY  0630            36 42                N/A
23 SSW MONTAUK P 0550            40 54  280/ 25/ 31 1013.4          6/ 6
15 E BARNEGAT LI 0630               53                N/A           6/ 5
HUDSON CANYON    0550            42 57              1014.8          9/ 7
KINGS POINT      0648            35 46              1015.8
EXECUTION ROCKS  0645            36     250/ 14/ 19   N/A
CENTRAL LI SOUND 0615            38 50  290/ 21/ 25   N/A           4/ 4
EASTERN LI SOUND NOT AVBL
ROBBINS REEF     0648            33     280/ 19/ 24 1016.7
$$


>>>>>>>>>>>>>>>>>>>>>>>>>>>> KEY <<<<<<<<<<<<<<<<<<<<<<<<<<<
>                                                          <
>     SKY/WX - Sky Condition/Present Weather               <
>     TMP    - Temperature in Fahrenheit                   <
>     DP     - Dew Point in Fahrenheit                     <
>     RH     - Relative Humidity in Percent                <
>     WIND   - Direction (from) and Speed in MPH           <
>     PRES   - Mean Sea Level Pressure (inches of Hg)      <
>     WCI    - Wind Chill Index                            <
>     VSB    - VISIBILITY IN MILES                         <
>     HX     - HEAT INDEX                                  <
>     TC     - TEMPERATURE IN CELSIUS                      <
>     VRB    - VARIABLE WIND DIRECTION                     <
>                                                          <
>>>>>>>>>>>>>>>>>>>>>>>>>>>> KEY <<<<<<<<<<<<<<<<<<<<<<<<<<<



USA.gov is the U.S. government's official web portal to all federal, state and local government web resources and services.